Location: Glendo
(42.5037°N, 105.0248°W)
Time: 07:56:53
(UTC+00:00)

Envisat - Pass Details

Date: 05 February 2022
Orbit: 764 x 765 km, 98.2° (Epoch: 22 May)

Event Time Altitude Azimuth Distance (km) Brightness Sun altitude
Rises 11:26:52 0° 18° (NNE) 3,240 6.5 -30.3°
Reaches altitude 10° 11:29:15 10° 24° (NNE) 2,310 5.8 -29.9°
Maximum altitude 11:34:11 48° 99° (E) 992 3.8 -28.9°
Drops below altitude 10° 11:39:04 10° 174° (S) 2,295 5.5 -28.0°
Sets 11:41:26 0° 180° (S) 3,217 6.2 -27.6°
